Regional Weather Roundup
Issued by NWS

Home | Current Version | Previous Version | Text Only | Print | Product List | Glossary On
Versions: 1 2 3 4 5 6 7 8 9 10 11 12 13 14 15 16 17 18 19 20 21 22 23 24 25 26 27 28 29 30 31 32 33 34 35 36 37 38 39 40 41 42 43 44 45 46 47 48 49 50
000
ASUS43 KOAX 160410
RWRNE

WEATHER ROUNDUP FOR NEBRASKA
NATIONAL WEATHER SERVICE OMAHA NE
1000 PM CST FRI DEC 15 2017

NOTES: SATELLITE DATA IS BEING USED TO AUGMENT CLOUD COVER ABOVE
       12000 FEET.
       "FAIR" INDICATES FEW OR NO CLOUDS BELOW 12,000 FEET WITH NO
       SIGNIFICANT WEATHER AND/OR OBSTRUCTIONS TO VISIBILITY.


NEZ001>004-019>022-054>056-160500-
NEBRASKA PANHANDLE

CITY           SKY/WX    TMP DP  RH WIND       PRES   REMARKS
SCOTTSBLUFF    CLOUDY    48   8  19 W12       29.76F
ALLIANCE       CLOUDY    41  13  31 W8        29.74S
CHADRON        CLOUDY    37  19  48 CALM      29.72F
GORDON         FAIR      44  20  39 W6        29.70S
KIMBALL        CLOUDY    37   7  28 W12       29.79F WCI  29
SIDNEY         CLOUDY    39   9  29 W9        29.80F WCI  33
$$

NEZ057>060-069>072-079>082-160500-
SOUTHWEST NEBRASKA

CITY           SKY/WX    TMP DP  RH WIND       PRES   REMARKS
NORTH PLATTE   CLOUDY    29  18  63 CALM      29.76S
IMPERIAL       CLOUDY    33   9  36 W7        29.78F WCI  27
LEXINGTON      CLOUDY    41  13  31 W5        29.76S
MCCOOK         CLOUDY    41  11  29 W10       29.78F
OGALLALA       CLOUDY    29  14  54 CALM      29.78S
$$

NEZ005>010-023>029-035>040-094-160500-
NORTH CENTRAL NEBRASKA

CITY           SKY/WX    TMP DP  RH WIND       PRES   REMARKS
VALENTINE      CLOUDY    34  24  67 W7        29.69S WCI  28
AINSWORTH      PTCLDY    38  26  63 W9        29.69R WCI  31
BROKEN BOW     CLOUDY    35  21  56 W9        29.72F WCI  28
O`NEILL        CLOUDY    37  28  70 SW7       29.67F WCI  31
ORD            CLOUDY    36  23  59 CALM      29.70F
THEDFORD       CLOUDY    39  19  43 W7        29.72S WCI  34
$$

NEZ041-046>049-061>064-073>077-083>087-160500-
SOUTH CENTRAL NEBRASKA

CITY           SKY/WX    TMP DP  RH WIND       PRES   REMARKS
GRAND ISLAND   CLOUDY    43  20  39 SW15      29.74F
AURORA         CLOUDY    38  22  52 SW14      29.74F WCI  29
HASTINGS       CLOUDY    42  18  37 SW12G22   29.77S
HEBRON         PTCLDY    43  22  43 SW13G20   29.80F
HOLDREGE       CLOUDY    40  16  37 SW14      29.77F WCI  32
KEARNEY        CLEAR     41  15  35 SW14      29.76F
YORK           CLOUDY    36  25  64 SW12      29.76S WCI  27
$$

NEZ011>018-030>034-042>045-160500-
NORTHEAST NEBRASKA

CITY           SKY/WX    TMP DP  RH WIND       PRES   REMARKS
NORFOLK        PTCLDY    39  25  57 W7        29.68F WCI  34
ALBION         PTCLDY    41  25  52 CALM      29.71F
BLAIR          CLOUDY    41  27  55 S12       29.74S
COLUMBUS       CLOUDY    37  25  61 SW5       29.74F WCI  33
FREMONT        CLOUDY    41  25  52 SW6       29.74S
TEKAMAH        CLOUDY    38  24  57 S7        29.73F WCI  33
WAYNE          CLOUDY    38  25  59 SW7       29.69S WCI  33
$$

NEZ050>053-065>068-078-088>093-160500-
SOUTHEAST NEBRASKA

CITY           SKY/WX    TMP DP  RH WIND       PRES   REMARKS
LINCOLN        CLOUDY    41  23  48 SW9       29.78F
OMAHA EPPLEY   CLOUDY    34  23  64 SE10      29.76F WCI  26
BEATRICE       CLOUDY    43  23  46 S14       29.81S
FALLS CITY     CLEAR     43  23  45 SW18      29.84S
NEBRASKA CITY  CLOUDY    43  24  47 SW15      29.79S
PLATTSMOUTH    CLOUDY    42  25  51 S13       29.77F
$$

NEZ044-045-051>053-067-160500-
OMAHA AREA

CITY           SKY/WX    TMP DP  RH WIND       PRES   REMARKS
OMAHA EPPLEY   CLOUDY    34  23  64 SE10      29.76F WCI  26
BLAIR          CLOUDY    41  27  55 S12       29.74S
FREMONT        CLOUDY    41  25  52 SW6       29.74S
MILLARD        CLOUDY    37  26  62 SE5       29.76F WCI  34
OFFUTT AFB     CLOUDY    29  21  73 CALM      29.76F
PLATTSMOUTH    CLOUDY    42  25  51 S13       29.77F
WAHOO          FAIR      39  25  56 SW8       29.75F WCI  33
$$



USA.gov is the U.S. government's official web portal to all federal, state and local government web resources and services.